Terug naar catalogus

STARLINK-3265

ActiefCommunicatieVLEO
NORAD 50180·PAYLOAD·🇺🇸 United States

Gelanceerd Dec 18, 2021 vanaf Vandenberg Space Force Base

Loading…

Volgende Passages (komende 24 uur)

TLE

VersSource: CelesTrak SupGP

Epoch: Sep 14, 2026, 20:34 UTC

1 50180C 21125AA  26257.85743056 -.00018749  00000+0 -60304-3 0  2578
2 50180  53.1576 108.0410 0001377  84.1235 286.4080 15.31703747    15

Volg STARLINK-3265 in realtime met AllMySat

Download on the App Store